Find Starlink 32809

NORAD ID: 62849 Int'l Des: 2025-019 Owner: SPXS Country: US Constellation: starlink operational
LEOCIRCULAR

Live Position

Loading 3D Globe...

About Starlink 32809

Description loading...

Upcoming Passes

Passes for default location (London). Set your location on the main map for personalized predictions.

Altitude History

Loading altitude history...

Two-Line Element Set

1 62849U 25019W 26121.12429575 .00022848 00000-0 83680-3 0 9995
2 62849 42.9978 152.5520 0001952 287.2987 72.7651 15.27596249 70274
Epoch: May 1, 2026 • Age: 10 hours

Current Status

Altitude 492.1 km
Velocity 7.62 km/s
Sub-Earth Point -34.87°S, 42.83°W
Launch Date Jan 27, 2025
Age 1.2 years
Type internet

Technical Details

Classification Payload
Mass 730.00 kg
Dry Mass 700.00 kg
Total Mass 730.00 kg
Length 0.30 m
Diameter 4.10 m
Span 29.00 m
Shape Box + pan
Manufacturer SPXS
Bus Type Starlink V2M
Phase Status In Orbit
Owner/State SPXS/US

Most Searched